Regional Weather Roundup
Issued by NWS

Home | Current Version | Previous Version | Graphics & Text | Print | Product List | Glossary On
Versions: 1 2 3 4 5 6 7 8 9 10 11 12 13 14 15 16 17 18 19 20 21 22 23 24 25 26 27 28 29 30 31 32 33 34 35 36 37 38 39 40 41 42 43 44 45 46 47 48 49 50
398
ASUS43 KFSD 071802
RWRSD

WEATHER ROUNDUP FOR SOUTH DAKOTA
NATIONAL WEATHER SERVICE SIOUX FALLS SD
1200 PM CST SUN FEB 07 2016

NOTE: "FAIR" INDICATES FEW OR NO CLOUDS BELOW 12,000 FEET WITH NO
SIGNIFICANT WEATHER AND/OR OBSTRUCTIONS TO VISIBILITY.


SDZ001>005-009-010-012>017-071900-
NORTHWEST AND NORTH CENTRAL SOUTH DAKOTA

CITY           SKY/WX    TMP DP  RH WIND       PRES   REMARKS
BUFFALO          N/A     37  13  37 NW56G72   30.03R
FAITH            N/A     36  17  46 NW51G61   30.02S
MOBRIDGE       CLOUDY    35  24  64 NW32G51   29.90R WCI  21
$$

SDZ012>016-024>037-041>051-057-063-072>074-071900-
SOUTHWEST AND SOUTH CENTRAL SOUTH DAKOTA

CITY           SKY/WX    TMP DP  RH WIND       PRES   REMARKS
RAPID CTY ARPT SUNNY     39   8  27 NW52G66   30.16R
PIERRE         CLOUDY    37  22  54 NW37G55   29.96R
CUSTER         MOSUNNY   27   1  32 NW25G55   30.15R WCI  12
ELLSWORTH AFB  LGT RAIN  37   9  31 NW52G64   30.13
PHILIP         PTSUNNY   40  16  37 NW46G62   30.04S
PINE RIDGE     SUNNY     39   4  23 NW36G49   30.19R
WINNER         CLOUDY    36  23  59 NW31G47   30.03R
$$

SDZ004>011-016>023-039-040-071900-
NORTHEAST SOUTH DAKOTA

CITY           SKY/WX    TMP DP  RH WIND       PRES   REMARKS
ABERDEEN       FLURRIES  36  25  64 NW35G47   29.82R
WATERTOWN      CLOUDY    34  28  79 NW24G31   29.74F WCI  21
BROOKINGS      FLURRIES  33  29  85 NW26G33   29.76F WCI  20
SISSETON         N/A     37  29  72 NW30G44   29.69R
$$

SDZ017-020-022-023-036>040-048>070-071900-
SOUTHEAST SOUTH DAKOTA

CITY           SKY/WX    TMP DP  RH WIND       PRES   REMARKS
SIOUX FALLS    PTSUNNY   36  27  69 NW29G40   29.84R
HURON          LGT SNOW  33  29  85 NW31G38   29.86S FOG     WCI  19
MITCHELL       LGT SNOW  35  30  82 W31G40    29.91F WCI  22
YANKTON        MOSUNNY  N/A N/A N/A W31G41    29.92S
$$

ABBREVIATIONS USED IN REMARKS
   TC - TEMPERATURE IN CELSIUS
  WCI - WIND CHILL INDEX
   HX - HEAT INDEX
  VSB - VISIBILITY





USA.gov is the U.S. government's official web portal to all federal, state and local government web resources and services.